Location: Milton
(43.5183°N, 79.8775°W)
Time: 06:45:42
(UTC+00:00)

FENGYUN 1C DEB - Visible Passes

Search period start: 03 December 2023 00:00
Search period end: 13 December 2023 00:00
Orbit: 771 x 841 km, 99.0° (Epoch: 02 December)

Date Brightness Start Highest point End Pass type
(mag) Time Alt. Az. Time Alt. Az. Time Alt. Az.
03 Dec ? 22:47:24 10° N 22:52:00 28° WNW 22:56:35 10° WSW visible
04 Dec ? 22:22:06 10° N 22:27:16 45° WNW 22:32:25 10° SW visible
05 Dec ? 23:39:20 10° NW 23:41:12 12° NW 23:43:04 10° WNW visible
06 Dec ? 23:12:56 10° NNW 23:16:35 19° WNW 23:20:15 10° WSW visible
07 Dec ? 22:47:15 10° N 22:51:52 29° WNW 22:56:28 10° WSW visible
08 Dec ? 22:21:50 10° N 22:27:01 46° WNW 22:32:11 10° SW visible
09 Dec ? 23:38:52 10° NNW 23:40:51 12° NW 23:42:50 10° WNW visible
10 Dec ? 23:12:25 10° NNW 23:16:08 19° WNW 23:19:50 10° WSW visible
11 Dec ? 22:46:39 10° N 22:51:18 29° WNW 22:55:55 10° WSW visible
12 Dec ? 22:21:07 10° N 22:26:20 47° WNW 22:31:30 10° SW visible
